Regional Weather Roundup
Issued by NWS

Home | Current Version | Previous Version | Graphics & Text | Print | Product List | Glossary On
Versions: 1 2 3 4 5 6 7 8 9 10 11 12 13 14 15 16 17 18 19 20 21 22 23 24 25 26 27 28 29 30 31 32 33 34 35 36 37 38 39 40 41 42 43 44 45 46 47 48 49 50
353
ASUS45 KCYS 292210
RWRWY

WYOMING REGIONAL WEATHER ROUNDUP
NATIONAL WEATHER SERVICE CHEYENNE WY
400 PM MDT THU SEP 29 2016

NOTE:  "FAIR" INDICATES FEW OR NO CLOUDS BELOW 12,000 FEET
WITH NO SIGNIFICANT WEATHER AND/OR OBSTRUCTIONS TO VISIBILITY.

WYZ001-292300-
YELLOWSTONE NATIONAL PARK

CITY           SKY/WX    TMP DP  RH WIND       PRES   REMARKS
LK YELLOWSTONE   N/A     60  40  47 CALM      30.37F
W YELLOWSTONE  NOT AVBL

$$
WYZ002>013-054>058-071-098>099-292300-
NORTHERN WYOMING

CITY           SKY/WX    TMP DP  RH WIND       PRES   REMARKS
JACKSON        PTSUNNY   57  48  72 SW20G28   30.30S
CODY           FAIR      79  41  25 S13       30.16F
GREYBULL       FAIR      78  47  33 S8        30.10F
WORLAND        FAIR      76  45  33 S14       30.12F
SHERIDAN       FAIR      69  55  60 SE3       30.10F
BUFFALO        FAIR      76  41  28 W25G37    30.17F
GILLETTE       FAIR      80  44  27 SW18G26   30.16R
HULETT         FAIR      79  43  27 S14       30.19S
NEWCASTLE      FAIR      79  39  24 SE16      30.21F

$$
WYZ014>020-022>026-101>103-292300-
CENTRAL WYOMING

CITY           SKY/WX    TMP DP  RH WIND       PRES   REMARKS
BIG PINEY      FAIR      69  39  33 S10       30.31F
PINEDALE       CLOUDY    68  36  30 S7        30.32F
DUBOIS         CLOUDY    61  39  44 SE7       30.30F
LANDER         FAIR      74  44  34 SW6       30.19F
RIVERTON       FAIR      72  49  44 S24       30.21F
CASPER         FAIR      70  44  39 SW21      30.28S
DOUGLAS        FAIR      79  40  24 S6        30.24F

$$
WYZ021-027>030-104>119-292300-
SOUTHERN WYOMING

CITY           SKY/WX    TMP DP  RH WIND       PRES   REMARKS
EVANSTON       FAIR      68  38  33 W17       30.33S
FORT BRIDGER   CLOUDY    70  37  29 SW16      30.35S
ROCK SPRINGS   FAIR      65  46  50 S20       30.32F
DIXON          LGT RAIN  56  50  80 SW7       30.45S
RAWLINS        CLOUDY    59  45  59 W18       30.37F
SARATOGA       MOCLDY    61  45  55 W23G32    30.39F
LARAMIE        CLOUDY    68  36  30 N17       30.36S
CHEYENNE       FAIR      77  34  21 SE9       30.30F
TORRINGTON     FAIR      84  36  18 SE18G25   30.18F
PINE BLUFFS    FAIR      81  34  18 S13       30.26F

$$




USA.gov is the U.S. government's official web portal to all federal, state and local government web resources and services.